Weather History for Richmond, KY

Change the Weather History Date:

Saturday, March 10, 2012

  Actual Average (KLOZ) Record (KLOZ)
Temperature  
Mean Temperature 42 °F 46 °F  
Max Temperature 55 °F 57 °F 78 °F (2009)
Min Temperature 28 °F 35 °F 19 °F (2001)
Degree Days  
Heating Degree Days 24 19  
Month to date heating degree days 206  
Since 1 July heating degree days 3482  
Cooling Degree Days 0 0  
Month to date cooling degree days 0  
Year to date cooling degree days 0  
Moisture  
Dew Point 23 °F    
Average Humidity 49    
Maximum Humidity 80    
Minimum Humidity 26    
Precipitation  
Precipitation 0.00 in 0.13 in 1.43 in (1992)
Month to date precipitation 1.32  
Year to date precipitation 8.57  
Sea Level Pressure  
Sea Level Pressure 30.44 in    
Wind  
Wind Speed 4 mph (ENE)    
Max Wind Speed 9 mph    
Max Gust Speed -    
Visibility 10 miles    
Events      
T = Trace of Precipitation, MM = Missing Value Source: NWS Daily Summary

Daily Weather History Graph

Daily Weather History Graph

Search for Another Location

Airport:

Trip Planner

Search our weather history database for the weather conditions in past years. The results will help you decide how hot, cold, wet, or windy it might be!

Date:

Astronomy

Mar. 10, 2012 Rise Set
Actual Time 6:55 AM EST 6:40 PM EST
Civil Twilight 6:29 AM EST 7:06 PM EST
Nautical Twilight 5:58 AM EST 7:36 PM EST
Astronomical Twilight 5:28 AM EST 8:07 PM EST
Moon 9:46 PM EST (3/10) 7:54 AM EST (3/10)
Length of Visible Light 12h 37m
Length of Day
11h 45m
Waning Gibbous, 93% of the Moon is Illuminated
Mar 10
Waning Gibbous
Mar 14
Last Quarter
Mar 22
New
Mar 30
First Quarter
Apr 6
Full

Hourly Weather History & Observations

Time (EST) Temp. Windchill Dew Point Humidity Pressure Visibility Wind Dir Wind Speed Gust Speed Precip Events Conditions
12:15 AM 35.6 °F - 19.4 °F 52% 30.47 in 10.0 mi Calm Calm - N/A   Clear
12:35 AM 33.8 °F - 19.4 °F 56% 30.47 in 10.0 mi Calm Calm - N/A   Clear
12:55 AM 33.8 °F 30.8 °F 19.4 °F 56% 30.46 in 10.0 mi NNE 3.5 mph - N/A   Clear
1:15 AM 33.8 °F 30.8 °F 19.4 °F 56% 30.47 in 10.0 mi NNE 3.5 mph - N/A   Clear
1:35 AM 33.8 °F 30.8 °F 19.4 °F 56% 30.47 in 10.0 mi NNE 3.5 mph - N/A   Clear
1:55 AM 32.0 °F 27.5 °F 21.2 °F 64% 30.47 in 10.0 mi NNE 4.6 mph - N/A   Clear
2:15 AM 32.0 °F 27.5 °F 21.2 °F 64% 30.47 in 10.0 mi NE 4.6 mph - N/A   Clear
2:35 AM 32.0 °F 27.5 °F 21.2 °F 64% 30.47 in 10.0 mi NNE 4.6 mph - N/A   Clear
2:55 AM 32.0 °F 28.7 °F 21.2 °F 64% 30.47 in 10.0 mi NNE 3.5 mph - N/A   Clear
3:15 AM 32.0 °F 26.4 °F 21.2 °F 64% 30.47 in 10.0 mi NE 5.8 mph - N/A   Clear
3:35 AM 30.2 °F 23.4 °F 21.2 °F 69% 30.47 in 10.0 mi NE 6.9 mph - N/A   Clear
3:55 AM 30.2 °F 25.4 °F 21.2 °F 69% 30.47 in 10.0 mi ENE 4.6 mph - N/A   Clear
4:15 AM 30.2 °F 24.3 °F 21.2 °F 69% 30.47 in 10.0 mi ENE 5.8 mph - N/A   Clear
4:35 AM 30.2 °F 25.4 °F 21.2 °F 69% 30.47 in 10.0 mi ENE 4.6 mph - N/A   Clear
4:55 AM 30.2 °F - 21.2 °F 69% 30.48 in 10.0 mi Calm Calm - N/A   Clear
5:15 AM 30.2 °F - 21.2 °F 69% 30.48 in 10.0 mi Calm Calm - N/A   Clear
5:35 AM 28.4 °F 24.6 °F 21.2 °F 74% 30.48 in 10.0 mi ESE 3.5 mph - N/A   Clear
6:15 AM 28.4 °F 24.6 °F 21.2 °F 74% 30.49 in 10.0 mi East 3.5 mph - N/A   Clear
7:15 AM 28.4 °F 24.6 °F 23.0 °F 80% 30.50 in 10.0 mi East 3.5 mph - N/A   Clear
7:55 AM 30.2 °F 24.3 °F 23.0 °F 75% 30.50 in 10.0 mi East 5.8 mph - N/A   Clear
8:15 AM 32.0 °F 25.6 °F 23.0 °F 69% 30.51 in 10.0 mi East 6.9 mph - N/A   Clear
8:35 AM 33.8 °F 28.6 °F 23.0 °F 65% 30.52 in 10.0 mi East 5.8 mph - N/A   Clear
8:55 AM 35.6 °F 29.2 °F 23.0 °F 60% 30.52 in 10.0 mi East 8.1 mph - N/A   Clear
9:15 AM 35.6 °F 29.2 °F 23.0 °F 60% 30.52 in 10.0 mi East 8.1 mph - N/A   Clear
9:35 AM 37.4 °F 30.8 °F 23.0 °F 56% 30.52 in 10.0 mi East 9.2 mph - N/A   Clear
10:15 AM 41.0 °F 36.4 °F 23.0 °F 49% 30.52 in 10.0 mi East 6.9 mph - N/A   Clear
11:15 AM 42.8 °F 38.6 °F 23.0 °F 46% 30.50 in 10.0 mi ENE 6.9 mph - N/A   Clear
12:15 PM 46.4 °F - 23.0 °F 40% 30.49 in 10.0 mi Calm Calm - N/A   Clear
12:35 PM 48.2 °F - 23.0 °F 37% 30.48 in 10.0 mi ENE 5.8 mph - N/A   Clear
12:55 PM 48.2 °F - 23.0 °F 37% 30.48 in 10.0 mi Calm Calm - N/A   Clear
1:15 PM 50.0 °F - 23.0 °F 35% 30.49 in 10.0 mi Calm Calm - N/A   Clear
1:35 PM 50.0 °F - 21.2 °F 32% 30.48 in 10.0 mi Calm Calm - N/A   Clear
1:55 PM 51.8 °F - 23.0 °F 33% 30.47 in 10.0 mi NW 3.5 mph - N/A   Clear
2:15 PM 51.8 °F - 23.0 °F 33% 30.46 in 10.0 mi WNW 4.6 mph - N/A   Clear
2:35 PM 51.8 °F - 23.0 °F 33% 30.45 in 10.0 mi Calm Calm - N/A   Clear
2:55 PM 51.8 °F - 23.0 °F 33% 30.44 in 10.0 mi NNE 4.6 mph - N/A   Clear
3:15 PM 53.6 °F - 24.8 °F 33% 30.44 in 10.0 mi NNW 3.5 mph - N/A   Clear
3:35 PM 53.6 °F - 23.0 °F 30% 30.43 in 10.0 mi NNE 3.5 mph - N/A   Clear
3:55 PM 53.6 °F - 23.0 °F 30% 30.42 in 10.0 mi ENE 5.8 mph - N/A   Clear
4:15 PM 53.6 °F - 23.0 °F 30% 30.41 in 10.0 mi NE 6.9 mph - N/A   Clear
4:35 PM 55.4 °F - 23.0 °F 29% 30.40 in 10.0 mi NE 4.6 mph - N/A   Clear
4:55 PM 55.4 °F - 23.0 °F 29% 30.40 in 10.0 mi ENE 5.8 mph - N/A   Clear
5:15 PM 55.4 °F - 23.0 °F 29% 30.38 in 10.0 mi ENE 5.8 mph - N/A   Clear
5:35 PM 55.4 °F - 21.2 °F 26% 30.38 in 10.0 mi ENE 6.9 mph - N/A   Clear
5:55 PM 55.4 °F - 23.0 °F 29% 30.38 in 10.0 mi ENE 6.9 mph - N/A   Clear
6:15 PM 53.6 °F - 23.0 °F 30% 30.38 in 10.0 mi ENE 4.6 mph - N/A   Clear
6:35 PM 51.8 °F - 23.0 °F 33% 30.38 in 10.0 mi NE 4.6 mph - N/A   Clear
7:15 PM 50.0 °F - 24.8 °F 37% 30.36 in 10.0 mi NE 4.6 mph - N/A   Clear
7:35 PM 48.2 °F - 24.8 °F 40% 30.36 in 10.0 mi ENE 4.6 mph - N/A   Clear
7:55 PM 48.2 °F - 24.8 °F 40% 30.36 in 10.0 mi ENE 4.6 mph - N/A   Clear
8:35 PM 48.2 °F - 24.8 °F 40% 30.37 in 10.0 mi ENE 3.5 mph - N/A   Clear
8:55 PM 46.4 °F 45.2 °F 24.8 °F 43% 30.38 in 10.0 mi East 3.5 mph - N/A   Clear
9:15 PM 46.4 °F 45.2 °F 23.0 °F 40% 30.38 in 10.0 mi East 3.5 mph - N/A   Clear
9:35 PM 46.4 °F - 24.8 °F 43% 30.38 in 10.0 mi Calm Calm - N/A   Clear
9:55 PM 44.6 °F 43.1 °F 24.8 °F 46% 30.38 in 10.0 mi East 3.5 mph - N/A   Clear
10:15 PM 42.8 °F 40.1 °F 26.6 °F 53% 30.37 in 10.0 mi East 4.6 mph - N/A   Clear
10:35 PM 42.8 °F 40.1 °F 24.8 °F 49% 30.38 in 10.0 mi ESE 4.6 mph - N/A   Clear
10:55 PM 42.8 °F 41.1 °F 24.8 °F 49% 30.38 in 10.0 mi ESE 3.5 mph - N/A   Clear
11:15 PM 42.8 °F 41.1 °F 24.8 °F 49% 30.37 in 10.0 mi ESE 3.5 mph - N/A   Clear
11:35 PM 39.2 °F 35.9 °F 26.6 °F 61% 30.37 in 10.0 mi ESE 4.6 mph - N/A   Clear
11:55 PM 39.2 °F 35.0 °F 26.6 °F 61% 30.37 in 10.0 mi East 5.8 mph - N/A   Clear